Location: Jodlow
(50.1500°N, 16.7500°E)
Time: 02:06:09
(UTC+02:00)

O/OREOS (USA 219) - Pass Details

Date: 05 April 2023
Orbit: 621 x 646 km, 72.0° (Epoch: 22 May)

Event Time Altitude Azimuth Distance (km) Brightness Sun altitude
Exits shadow 05:41:38 - 234° (SW) 2,233 ? -7.1°
Reaches altitude 10° 05:42:11 10° 237° (WSW) 2,030 ? -7.0°
Maximum altitude 05:46:27 38° 306° (NW) 974 ? -6.3°
Drops below altitude 10° 05:50:43 10° 15° (NNE) 2,028 ? -5.7°
Sets 05:53:08 0° 24° (NNE) 2,936 ? -5.3°
